Location: Shepherdstown, WV
(39.4326°N, 77.8042°W)
Time: 21:06:40
(UTC-04:00)

Vanguard 1 Rocket - Pass Details

Date: 11 August 2021
Orbit: 650 x 4226 km, 34.3° (Epoch: 16 September)

Event Time Altitude Azimuth Distance (km) Brightness Sun altitude
Rises 12:18:49 0° 274° (W) 8,258 12.1 62.6°
Reaches altitude 10° 12:25:04 10° 273° (W) 6,925 11.9 63.2°
Maximum altitude 12:45:37 66° 198° (SSW) 2,633 11.8 64.7°
Drops below altitude 10° 12:56:07 10° 118° (ESE) 3,806 11.0 65.2°
Sets 12:58:31 0° 115° (ESE) 4,473 11.1 65.3°
